Weather Roundup
Issued by NWS

Home | Current Version | Previous Version | Graphics & Text | Print | Product List | Glossary Off
Versions: 1 2 3 4 5 6 7 8 9 10 11 12 13 14 15 16 17 18 19 20 21 22 23 24 25 26 27 28 29 30 31 32 33 34 35 36 37 38 39 40 41 42 43 44 45 46 47 48 49 50

000
NZUS93 KARX 252110
HRRWXR

CURRENT HOURLY OBSERVATIONS ACROSS
MUCH OF THE UPPER MISSISSIPPI VALLEY
NATIONAL WEATHER SERVICE LA CROSSE WI
400 PM CDT MON MAY 25 2015


...SOUTHEAST MINNESOTA...


CITY           SKY/WX    TMP DP  RH WIND       PRES   REMARKS
ROCHESTER      MOSUNNY   72  63  73 SW23      29.77S
ROCHESTER/MAYO MOCLDY    73  61  66 SW9G23    29.76S
WINONA         MOSUNNY   75  59  57 SW12G20   29.75R
AUSTIN         TSTM      66  61  82 SW21      29.79R
ALBERT LEA     MOSUNNY   70  63  78 S10G20    29.77R
DODGE CENTER   MOSUNNY   72  63  73 SW9       29.76S
PRESTON        PTSUNNY   65  61  86 SW7       29.79F FOG
OWATONNA       MOSUNNY   72  59  64 SW16G23   29.76S
FARIBAULT      PTSUNNY   72  61  68 SW13      29.75S
$$

...ELSEWHERE IN MINNESOTA...


CITY           SKY/WX    TMP DP  RH WIND       PRES   REMARKS
MINNEAPOLIS    CLOUDY    69  58  67 SW14G21   29.73R
INTNL FALLS    LGT RAIN  62  54  74 CALM      29.77S
DULUTH         CLOUDY    55  52  89 E8        29.71S FOG
RED WING       CLOUDY    73  57  56 W14       29.73R
REDWOOD FALLS  CLOUDY    68  58  70 W9        29.74R
MANKATO        CLOUDY    72  59  64 W14       29.75S
WORTHINGTON    PTSUNNY   72  59  64 SW14G22   29.76F
FAIRMONT       PTSUNNY   73  57  56 SW21      29.75F
$$

...SOUTHWEST WISCONSIN...


CITY           SKY/WX    TMP DP  RH WIND       PRES   REMARKS
LA CROSSE      TSTM      77  62  59 SW12G21   29.75S
PRAIRIE DU CHI MOSUNNY   78  58  48 SW21G26   29.80F
BOSCOBEL       PTSUNNY   79  62  56 SW18G24   29.81R
LONE ROCK      PTSUNNY   77  61  57 SW13G24   29.82R
PLATTEVILLE    PTSUNNY   77  64  63 SW21G26   29.86R
FORT MC COY    MOSUNNY   77  58  52 SW13G20   29.77F
CAMP DOUGLAS   SUNNY     79  65  64 SW20G25   29.77R
VIROQUA        MOCLDY    75  61  63 SW15      29.80F
WIS DELLS      PTSUNNY   76  62  62 SW13G22   29.81R
$$

...ELSEWHERE IN WISCONSIN...


CITY           SKY/WX    TMP DP  RH WIND       PRES   REMARKS
MILWAUKEE      PTSUNNY   78  58  49 SW18G26   29.85S
MADISON        PTSUNNY   77  61  57 SW9       29.83R
GREEN BAY      PTSUNNY   76  62  62 SW21G28   29.75S
EAU CLAIRE     CLOUDY    72  58  61 SW17G23   29.73S
BLACK RVR FLS  MOCLDY    78  58  49 SW10G17   29.75S
MEDFORD        CLOUDY    67  59  77 SW14G20   29.77R
WAUSAU         CLOUDY    70  59  68 SW12G28   29.75R
WIS RAPIDS     PTSUNNY   76  58  53 W15G22    29.78R
MARSHFIELD     PTSUNNY   74  60  61 SW16G23   29.76R
RICE LAKE      CLOUDY    65  56  71 SW12      29.75R
$$

...NORTHEAST IOWA...


CITY           SKY/WX    TMP DP  RH WIND       PRES   REMARKS
DECORAH        MOSUNNY   77  61  57 S13G28    29.79S
MASON CITY     MOSUNNY   77  58  51 SW20G29   29.80R
CHARLES CITY   MOSUNNY   77  59  53 SW21G30   29.80S
OELWEIN        MOSUNNY   77  63  61 SW24      29.83S
$$

...ELSEWHERE IN IOWA...


CITY           SKY/WX    TMP DP  RH WIND       PRES   REMARKS
DES MOINES     PTSUNNY   78  62  57 S18G25    29.82S
IOWA CITY      MOSUNNY   79  60  52 S20G28    29.88F
FORT DODGE     PTSUNNY   75  57  53 S15G22    29.80F
$$

...NORTHERN ILLINOIS...


CITY           SKY/WX    TMP DP  RH WIND       PRES   REMARKS
CHICAGO-OHARE  PTSUNNY   77  61  57 SW12G26   29.91R
CHICAGO-MIDWAY PTSUNNY   79  62  56 SW15G26   29.92R
MOLINE         SUNNY     80  58  46 SW21G29   29.88F
ROCKFORD       MOSUNNY   77  62  59 SW16      29.91R
PEORIA         MOSUNNY   82  62  50 S15G23    29.95R
$$

NOTE: "FAIR" INDICATES FEW OR NO CLOUDS BELOW 12,000 FEET WITH NO
SIGNIFICANT WEATHER AND/OR OBSTRUCTIONS TO VISIBILITY. WIND
SPEEDS ARE IN MILES-PER-HOUR.



USA.gov is the U.S. government's official web portal to all federal, state and local government web resources and services.